sat.trackr.live / text

‹ back to catalog

HULIANWANG DIGUI-152

NORAD 67528 · 2026-013G

PAYLOAD ACTIVE UNKNOWN

§ Identity

Operator
Country
PRC
Launch date
2026-01-19
Launch site
WSC
Launch vehicle
Mass (kg)
RCS (m²)

External: N2YO · Heavens-Above · Gunter

§ Orbital elements

Epoch: 2026-09-20T14:04:30.009216Z

Period
108.33 min
Inclination
50.0063°
Eccentricity
0.0000706
Mean motion
13.29331270 rev/d
Perigee alt
1,148.8 km
Apogee alt
1,149.8 km
Semi-major
7,527.4 km
B*
6.8287e-5
RAAN
13.2462°
Arg perigee
106.1256°
Mean anomaly
253.9694°
Rev number
3,274

§ Raw data

HULIANWANG DIGUI-1521 67528U 26013G   26263.58645844 -.00000092  00000+0  68287-4 0  99992 67528  50.0063  13.2462 0000706 106.1256 253.9694 13.29331270 32741

JSON: /api/v1/satellites/67528 · /tle

For live sub-satellite position, see the globe view (requires WebGL).

§ Visibility from observer

Set your observer location to see the next 7 days of passes ≥ 10°. The values pass through the URL so the page stays shareable.

No JS? Fill the form by hand. The geolocation button needs JavaScript.